Powrót do katalogu

OPS 4682 DEB

AktywnyPO
NORAD 38433·DEBRIS·🇺🇸 United States

Wystrzelony Apr 3, 1965 z Vandenberg Space Force Base

Loading…

Następne Przeloty (najbliższe 24 godziny)

TLE

ŚwieżeSource: Space-Track

Epoka: Sep 14, 2026, 07:15 UTC

1 38433U 65027EN  26257.30249937  .00000970  00000-0  26733-2 0  9999
2 38433  90.2644  15.4530 0026008 287.5902  72.2386 13.12341346643532

Śledź OPS 4682 DEB w czasie rzeczywistym z AllMySat

Download on the App Store